Location: Berlin
(38.3226°N, 75.2177°W)
Time: 14:34:33
(UTC+00:00)

SL-19 R/B - Pass Details

Date: 26 October 2020
Orbit: 358 x 808 km, 99.4° (Epoch: 26 November)

Event Time Altitude Azimuth Distance (km) Brightness Sun altitude
Rises 10:03:17 0° 10° (N) 2,199 7.5 -15.9°
Reaches altitude 10° 10:05:13 10° 7° (N) 1,344 6.3 -15.5°
Maximum altitude 10:07:59 62° 286° (WNW) 415 3.4 -15.0°
Drops below altitude 10° 10:10:50 10° 205° (SSW) 1,381 6.2 -14.4°
Sets 10:12:50 0° 201° (SSW) 2,268 7.3 -14.0°
